Regional Weather Roundup
Issued by NWS Wakefield, VA

Home | Current Version | Previous Version | Text Only | Print | Product List | Glossary On
Versions: 1 2 3 4 5 6 7 8 9 10 11 12 13 14 15 16 17 18 19 20 21 22 23 24 25 26 27 28 29
000
ASUS41 KAKQ 250115
RWRAKQ

REGIONAL WEATHER ROUNDUP
NATIONAL WEATHER SERVICE WAKEFIELD VA
900 PM EDT WED AUG 24 2016

Note: "fair" indicates few or no clouds below 12,000 feet with no
significant weather and/or obstructions to visibility. * = Denotes
station may not report precipitation (e.g., rain,snow,etc.),
thunder or fog.

VAZ042-051-052>054-056-250200-
NORTHERN VIRGINIA

CITY           SKY/WX    TMP DP  RH WIND       PRES   REMARKS
WASH NATIONAL  CLOUDY    78  65  63 S13       30.20R
DULLES         PTCLDY    76  66  71 SE8       30.18S
FORT BELVOIR   CLEAR     74  64  70 SE3       30.19R
QUANTICO       CLEAR     78  68  71 S12       30.19R
FREDERICKSBRG* CLEAR     74  67  79 S6        30.18S
STAFFORD*      CLEAR     73  66  81 CALM      30.23S
WARRENTON      CLEAR     75  63  65 SE5       30.18S
CULPEPER*      CLEAR     72  68  88 CALM      30.19S
MANASSAS*      CLEAR     73  68  83 S5        30.18R
LEESBURG*      CLEAR     79  70  73 S10       30.19S
WINCHESTER     CLOUDY    77  64  65 S6        30.17S
FRONT ROYAL*   FAIR      73  68  83 CALM      30.16S
LURAY*         FAIR      75  66  73 S3        30.18S
$$

VAZ048-049-060>072-079>083-250200-
CENTRAL AND SOUTH CENTRAL VIRGINIA

CITY           SKY/WX    TMP DP  RH WIND       PRES   REMARKS
RICHMOND       PTCLDY    72  62  71 SE8       30.20R
CHESTERFIELD*  FAIR      75  54  46 CALM      30.22R
PETERSBURG*    CLEAR     69  67  92 SE5       30.21S
HANOVER        CLEAR     73  63  70 VRB5      30.22R
TAPPAHANNOCK*  CLEAR     73  61  65 SE5       30.21S
QUINTON*       FAIR      73  63  71 E9        30.20S
CHARLOTTSVILLE PTCLDY    77  67  71 S5        30.19S
GORDONSVILLE*  FAIR      72  70  94 CALM      30.19R
ORANGE*          N/A     73  70  88 CALM      30.21S
LOUISA*        CLEAR     72  70  94 S3        30.19S
BUMPASS*       FAIR      71  68  89 CALM      30.20R
FARMVILLE*     CLEAR     74  69  85 CALM      30.19S
CREWE*         FAIR      69  69 100 CALM      30.21R
FORT PICKETT*  NOT AVBL
CHASE CITY*    FAIR      72  68  88 CALM      30.22R
CLARKSVILLE*   FAIR      73  66  78 CALM      30.21S
SOUTH HILL*    CLEAR     68  66  93 CALM      30.27R
LAWRENCEVILLE* FAIR      70  66  88 CALM      30.21R
EMPORIA*       CLEAR     64  63  94 CALM      30.23R
$$

VAZ088>098-250200-
SOUTHEAST VIRGINIA

CITY           SKY/WX    TMP DP  RH WIND       PRES   REMARKS
NORFOLK        CLEAR     74  66  76 SE5       30.21S
VIRGINIA BEACH PTCLDY    78  65  63 E3        30.21R
NORFOLK NAVAL  PTCLDY    74  65  73 SE5       30.23R
WEST POINT*    CLEAR     71  61  70 E5        30.22S
SALUDA*        FAIR      72  65  77 S3        30.21S
NEWPORT NEWS   CLEAR     70  64  81 E3        30.22R
LANGLEY AFB    CLEAR     75  66  73 SE7       30.21S
FORT EUSTIS    CLEAR     75  64  67 SE5       30.19R
WILLIAMSBURG*  CLEAR     73  64  73 E3        30.22R
HR EXEC AP*    FAIR      66  61  82 SE3       30.24R
FRANKLIN*      PTCLDY    71  63  76 E3        30.22R
US460-WAKEFLD  CLEAR     69  61  75 CALM      30.21R
$$

VAZ020-022-025-037-045-250200-
WEST CENTRAL AND SOUTHWEST VIRGINIA

CITY           SKY/WX    TMP DP  RH WIND       PRES   REMARKS
STAUNTON*      CLEAR     74  67  77 S5        30.22S
WAYNESBORO*    FAIR      73  66  78 S3        30.23R
HOT SPRINGS VA CLEAR     67  64  89 SW5       30.32F
LYNCHBURG      PTCLDY    72  67  84 S3        30.23R
DANVILLE       CLOUDY    76  68  76 VRB5      30.21R
SOUTH BOSTON*  FAIR      74  66  75 CALM      30.21R
MARTINSVILLE   PTCLDY    73  69  89 CALM      30.24S
ROANOKE        PTCLDY    76  69  79 SE3       30.24R
BLACKSBURG     PTCLDY    74  68  81 S5        30.29S
DUBLIN*        PTCLDY    74  69  84 S3        30.27S
MARION*        PTCLDY    71  68  90 CALM      30.31S
HILLSVILLE*    PTCLDY    70  68  94 S3        30.29S
RICHLANDS*     FAIR      73  68  83 S3        30.29R
WISE*          PTCLDY    72  61  68 S5        30.30R
ABINGDON*      PTCLDY    74  70  88 CALM      30.26S
$$

MDZ021>025-VAZ099-100-250200-
SOUTHERN MARYLAND AND THE DELMARVA PENINSULA

CITY           SKY/WX    TMP DP  RH WIND       PRES   REMARKS
PATUXENT RIVER PTCLDY    73  60  63 S6        30.20R
BAY BRIDGE APT CLEAR     77  63  61 S7        30.19S
LEONARDTOWN    PTCLDY    72  59  64 CALM      30.22S
DOVER          CLEAR     71  65  81 SE10      30.19R
GEORGETOWN     CLEAR     69  63  81 S5        30.22S
EASTON         CLEAR     77  64  65 S7        30.24R
CAMBRIDGE      PTCLDY    68  61  77 CALM      30.21R
SALISBURY      CLEAR     68  63  84 SE6       30.21S
OCEAN CITY     CLEAR     75  62  64 S3        30.22S
WALLOPS ISLAND CLEAR     72  59  63 S6        30.23R
ACCOMACK*      CLEAR     68  62  80 SE6       30.22S
$$

NCZ012>017-030>032-250200-
NORTH CENTRAL AND EASTERN NORTH CAROLINA

CITY           SKY/WX    TMP DP  RH WIND       PRES   REMARKS
ROANOKE RAPIDS FAIR      68  64  88 CALM      30.21R
RALEIGH        PTCLDY    76  64  66 CALM      30.22R
ELIZABETH CITY CLEAR     75  68  78 E7        30.22R
AHOSKIE*       CLEAR     69  67  93 CALM      30.22R
EDENTON*       CLEAR     75  68  79 CALM      30.22R
CURRITUCK*       N/A     75  68  78 CALM      30.23R
KILL DEVIL HLS CLEAR     76  72  87 CALM      30.21R
MANTEO         MOCLDY    77  70  79 E3        30.22R
CAPE HATTERAS  CLEAR     76  69  79 E6        30.20S
TARBORO*       FAIR      71  70  96 CALM      30.22R FOG
GOLDSBORO      PTCLDY    75  67  77 E2        30.18S
WASHINGTON     MOCLDY    72  65  79 E3        30.21R
GREENVILLE     MOCLDY    72  66  83 CALM      30.22R
NEW BERN       PTCLDY    75  68  78 E3        30.21R
WILMINGTON     PTCLDY    76  65  68 N3        30.19S
$$

VAZ048-250200-
ELSEWHERE

CITY           SKY/WX    TMP DP  RH WIND       PRES   REMARKS
HARRISBURG PA  PTCLDY    77  68  73 S7        30.16R
BALTIMORE      PTCLDY    75  64  68 S6        30.19R
ANNAPOLIS      CLEAR     78  63  59 S6        30.18S
ANDREWS AFB    CLOUDY    72  63  74 S7        30.19R
PHILADELPHIA   MOCLDY    76  61  59 S13       30.19S
HENDERSON NC   PTCLDY    69  64  84 CALM      30.23R
GREENSBORO     MOCLDY    77  65  66 S7        30.21S
ROCKY MOUNT    PTCLDY    70  67  90 CALM      30.21S
$$

VAZ100-250200-
MARINE

STATION/POSITION TIME  TEMP    WIND        PRES    WAVE   SWELL
                       AIR SEA DIR/SP/G            HT/PER HT/PER
                 (UTC) (F)     (DEG/KT/KT) (MB)    (FT/S) (FT/S)
BRANDYWINE LGT   0000   74     180/ 16/ 18   N/A
CAPE MAY NJ      0000   73 75  160/  5/  7 1022.6F
LEWES DE         0000   74 76  170/  6/  8 1023.0R
OCEAN-CITY-INLET 0000   75 75  190/  5/  7 1023.6F
WACHAPREAGUE VA  0000   75 83  120/  3/  4 1023.2F
THOMAS POINT MD  0100   80 82  180/ 16/ 17 1023.3R
GOOSES REEF MD   0000   80 82  170/ 14/ 16 1022.5F   2/ 3
COVE POINT MD    0000   79     180/ 12/ 15 1022.8F
SOLOMONS ISLAND  0000   78 84  170/  9/ 11   N/A
BISHOPS HEAD MD  0000   79 83  160/ 10/ 11 1022.8S
PINEY POINT MD   0000          190/ 14/ 16   N/A
POTOMAC MD       0000   79 83  190/ 12/ 16 1021.6S   1/ 2
CAMBRIDGE MD     0000   76 84  170/  3/  5 1021.7R
LEWISETTA VA     0000   76 83  180/  6/  7 1022.2R
RAPPAHANNOCK LGT 0000          120/ 10/ 11 1023.7R
STINGRAY PT      0000   79 84  100/ 10/ 14 1023.3R   1
YORK RVR RNG VA  0000   78     180/  8/ 11 1022.4R
YORKTOWN VA      0000   77 83  150/  7/  8 1022.5R
JAMESTOWN VA     0000   80 85  110/  8/ 12   N/A     1
DOMINION TERM VA 0000   78     110/  8/ 11 1022.9R
KIPTOPEKE VA     0000      78  100/  4/  5   N/A
CHES BAY BRIDGE  0000   77 79  100/  6/ 10 1023.0R
CAPE HENRY VA    0000   76     110/  8/  9   N/A
WILLOUBY STN VA  0000   77      90/  6/  9   N/A
CAPE HENRY BUOY  0012      79                N/A     2/11   2/11
1ST LANDING BUOY 0000   77 78  120/  8/ 10 1022.8R   1/ 4
CAPE CHARLES BUO 0026      78                N/A     2/11   2/11
OFFSHORE WE BUOY 0021      80                N/A     2/11   2/11
64NM E OF VA BCH 0050   78 81   90/  6/  8 1023.1S   3/11   3/11
DUCK PIER NC     0000   78 79   60/  6/  7 1022.3S
44100 DUCK FRF   0005      80                N/A     3/11   2/11
44056 DUCK FRF   0011      77                N/A     2/12
OREGON INLET NC  0000   77 79   90/  3/  4 1022.6S
HATTERAS NC      0000   79 80   70/  3/  4 1022.2R
DIAMOND SHLS NC  0050   81 84   80/ 12/ 16 1022.4R   3/11   2/11
CAPE LOOKOUT NC  0100   81      90/ 12/ 12 1021.9R
$$




USA.gov is the U.S. government's official web portal to all federal, state and local government web resources and services.